This is the latest recevied weather packets stored in our database for station/object K1BES. If no packets are shown the sender has not sent any weather packets the latest 10 day(s).
| Time | Temp. | Humidity | Pressure | Rain* | Wind** | Luminosity | Snow |
|---|---|---|---|---|---|---|---|
| 1778016845 | 26.67° C | 74% | 1016.2 hPa | 0 mm | - | 72 W/m² | - |
| 1778016540 | 26.67° C | 74% | 1016.1 hPa | 0 mm | - | 81 W/m² | - |
| 1778016238 | 27.22° C | 73% | 1016.2 hPa | 0 mm | - | 96 W/m² | - |
| 1778015934 | 27.22° C | 72% | 1016.2 hPa | 0 mm | - | 197 W/m² | - |
| 1778015631 | 27.78° C | 71% | 1016.2 hPa | 0 mm | - | 247 W/m² | - |
| 1778015328 | 27.78° C | 71% | 1016.2 hPa | 0 mm | - | 501 W/m² | - |
| 1778015025 | 27.78° C | 71% | 1016.2 hPa | 0 mm | - | 343 W/m² | - |
| 1778014721 | 27.78° C | 70% | 1016.2 hPa | 0 mm | - | 520 W/m² | - |
| 1778014420 | 27.78° C | 71% | 1016.1 hPa | 0 mm | - | 379 W/m² | - |
| 1778014117 | 27.78° C | 71% | 1016.2 hPa | 0 mm | - | 178 W/m² | - |
| 1778013814 | 27.78° C | 71% | 1016.2 hPa | 0 mm | - | 629 W/m² | - |
| 1778013511 | 27.78° C | 70% | 1016.3 hPa | 0 mm | - | 636 W/m² | - |
| 1778013208 | 27.78° C | 71% | 1016.2 hPa | 0 mm | - | 225 W/m² | - |
| 1778012904 | 27.78° C | 71% | 1016.3 hPa | 0 mm | - | 174 W/m² | - |
| 1778012600 | 27.78° C | 71% | 1016.3 hPa | 0 mm | - | 84 W/m² | - |
| 1778012297 | 27.78° C | 71% | 1016.5 hPa | 0 mm | - | 105 W/m² | - |
| 1778011995 | 27.78° C | 70% | 1016.5 hPa | 0 mm | - | 113 W/m² | - |
| 1778011693 | 27.78° C | 69% | 1016.6 hPa | 0 mm | - | 108 W/m² | - |
| 1778011390 | 28.33° C | 68% | 1016.5 hPa | 0 mm | - | 198 W/m² | - |
| 1778011084 | 28.33° C | 69% | 1016.5 hPa | 0 mm | - | 803 W/m² | - |
| 1778010782 | 28.33° C | 69% | 1016.5 hPa | 0 mm | - | 783 W/m² | - |
| 1778010479 | 28.33° C | 68% | 1016.6 hPa | 0 mm | - | 711 W/m² | - |
| 1778010176 | 28.89° C | 68% | 1016.4 hPa | 0 mm | - | 776 W/m² | - |
| 1778009877 | 28.89° C | 67% | 1016.3 hPa | 0 mm | - | 792 W/m² | - |
| 1778009575 | 28.89° C | 68% | 1016.3 hPa | 0 mm | - | 792 W/m² | - |
* Rain latest hour (hover to see other rain measurements)
** Current wind speed in m/s (hover to see current wind gust speed)